Location: Malmö
(55.6090°N, 13.0007°E)
Time: 09:14:09
(UTC+01:00)

ISS - Pass Details

Date: 30 January 2021
Orbit: 417 x 422 km, 51.6° (Epoch: 05 March)

Event Time Altitude Azimuth Distance (km) Brightness Sun altitude
Rises 17:12:43 0° 254° (WSW) 2,371 2.5 -5.1°
Reaches altitude 10° 17:14:52 10° 247° (WSW) 1,508 1.0 -5.4°
Maximum altitude 17:18:05 42° 176° (S) 621 -2.7 -5.8°
Drops below altitude 10° 17:21:18 10° 104° (ESE) 1,511 -1.4 -6.2°
Enters shadow 17:22:22 - 100° (E) 1,932 -0.9 -6.3°
